Location: Ariel
(45.9570°N, 122.5700°W)
Time: 01:59:52
(UTC-07:00)

Vanguard 3 - Pass Details

Date: 30 August 2019
Orbit: 508 x 3263 km, 33.4° (Epoch: 14 September)

Event Time Altitude Azimuth Distance (km) Brightness Sun altitude
Rises 12:10:51 0° 188° (S) 7,110 12.4 50.8°
Reaches altitude 10° 12:20:33 10° 164° (SSE) 5,668 12.3 51.4°
Maximum altitude 12:25:49 12° 146° (SE) 5,126 12.1 51.7°
Drops below altitude 10° 12:30:30 10° 126° (SE) 4,930 11.8 51.9°
Sets 12:37:10 0° 100° (E) 5,274 11.5 52.2°
